Lone Rock, WI

4:32 PM CDT on April 25, 2017 (GMT -0500)
Tri-County Regional

Weather History for KLNR - September, 2014

Change the Weather History Date:

Friday, September 12, 2014

  Actual Average Record
Temperature  
Mean Temperature 48 °F -  
Max Temperature 52 °F 73 °F 90 °F (2005)
Min Temperature 45 °F 50 °F 37 °F (2007)
Degree Days  
Heating Degree Days 16    
Moisture  
Dew Point 41 °F    
Average Humidity 74    
Maximum Humidity 83    
Minimum Humidity 66    
Precipitation  
Precipitation 0.24 in - - ()
Sea Level Pressure  
Sea Level Pressure 30.36 in    
Wind  
Wind Speed 3 mph (North)    
Max Wind Speed 9 mph    
Max Gust Speed -    
Visibility 10 miles    
Events Rain    
Averages and records for this station are not official NWS values.
T = Trace of Precipitation, MM = Missing Value Source: NWS Daily Summary

Daily Weather History Graph

Daily Weather History Graph

Search for Another Location

Airport or City:

Trip Planner

Search our weather history database for the weather conditions in past years. The results will help you decide how hot, cold, wet, or windy it might be!

Date:

Astronomy

Sep. 12, 2014 Rise Set
Actual Time 6:36 AM CDT 7:16 PM CDT
Civil Twilight 6:08 AM CDT 7:44 PM CDT
Nautical Twilight 5:34 AM CDT 8:18 PM CDT
Astronomical Twilight 4:58 AM CDT 8:53 PM CDT
Moon 9:29 PM CDT (9/12) 10:47 AM CDT (9/12)
Length of Visible Light 13h 36m
Length of Day
12h 39m
Waning Gibbous, 83% of the Moon is Illuminated
Sep 12
Waning Gibbous
Sep 15
Last Quarter
Sep 24
New
Oct 1
First Quarter
Oct 8
Full

Hourly Weather History & Observations

Time (CDT) Temp. Windchill Dew Point Humidity Pressure Visibility Wind Dir Wind Speed Gust Speed Precip Events Conditions
12:56 AM 46.9 °F - 39.9 °F 77% 30.33 in 10.0 mi Calm Calm - N/A   Clear
1:56 AM 46.9 °F - 41.0 °F 80% 30.34 in 10.0 mi Calm Calm - N/A   Clear
2:56 AM 46.0 °F - 39.9 °F 79% 30.34 in 10.0 mi Calm Calm - N/A   Partly Cloudy
3:56 AM 48.0 °F - 41.0 °F 77% 30.34 in 10.0 mi WSW 4.6 mph - N/A   Clear
4:47 AM 48.9 °F - 42.1 °F 77% 30.37 in 10.0 mi NW 3.5 mph - 0.00 in Rain Light Rain
4:56 AM 48.9 °F - 42.1 °F 77% 30.36 in 10.0 mi Calm Calm - 0.00 in   Overcast
5:56 AM 50.0 °F - 42.1 °F 74% 30.38 in 10.0 mi Variable 5.8 mph - N/A   Overcast
6:56 AM 48.9 °F - 42.1 °F 77% 30.38 in 10.0 mi NNE 6.9 mph - 0.01 in Rain Light Rain
7:56 AM 48.9 °F - 42.1 °F 77% 30.39 in 8.0 mi North 4.6 mph - 0.03 in Rain Light Rain
8:56 AM 48.9 °F - 42.1 °F 77% 30.41 in 5.0 mi North 5.8 mph - 0.05 in Rain Light Rain
9:56 AM 48.9 °F - 41.0 °F 74% 30.42 in 10.0 mi North 8.1 mph - 0.06 in Rain Light Rain
10:56 AM 48.9 °F - 41.0 °F 74% 30.41 in 10.0 mi NNE 5.8 mph - 0.04 in Rain Light Rain
11:56 AM 50.0 °F - 41.0 °F 71% 30.40 in 10.0 mi North 4.6 mph - 0.01 in Rain Light Rain
12:36 PM 50.0 °F - 41.0 °F 71% 30.39 in 10.0 mi North 6.9 mph - 0.01 in Rain Light Rain
12:56 PM 50.0 °F - 39.9 °F 68% 30.39 in 7.0 mi North 6.9 mph - 0.01 in Rain Light Rain
1:56 PM 50.0 °F - 39.9 °F 68% 30.39 in 9.0 mi North 8.1 mph - 0.02 in Rain Light Rain
2:56 PM 50.0 °F - 39.9 °F 68% 30.38 in 10.0 mi North 9.2 mph - 0.01 in Rain Light Rain
3:56 PM 50.0 °F - 39.9 °F 68% 30.36 in 10.0 mi NW 5.8 mph - 0.00 in Rain Light Rain
4:49 PM 51.1 °F - 41.0 °F 68% 30.34 in 10.0 mi North 4.6 mph - 0.00 in   Mostly Cloudy
4:56 PM 51.1 °F - 41.0 °F 68% 30.34 in 10.0 mi NNE 8.1 mph - 0.00 in   Overcast
5:23 PM 51.1 °F - 41.0 °F 68% 30.34 in 10.0 mi North 4.6 mph - N/A   Overcast
5:56 PM 51.1 °F - 39.9 °F 66% 30.34 in 10.0 mi North 6.9 mph - N/A   Scattered Clouds
6:56 PM 48.9 °F - 41.0 °F 74% 30.34 in 10.0 mi Calm Calm - N/A   Partly Cloudy
7:56 PM 46.0 °F - 41.0 °F 83% 30.34 in 10.0 mi Calm Calm - N/A   Mostly Cloudy
8:56 PM 46.9 °F - 41.0 °F 80% 30.35 in 10.0 mi Calm Calm - N/A   Overcast
9:56 PM 46.9 °F - 42.1 °F 83% 30.33 in 10.0 mi Calm Calm - N/A   Overcast
10:56 PM 46.0 °F 44.8 °F 39.9 °F 79% 30.34 in 10.0 mi WSW 3.5 mph - N/A   Clear
11:56 PM 45.0 °F - 39.0 °F 80% 30.34 in 10.0 mi Calm Calm - N/A   Partly Cloudy